5NAAT WAAA-WAGS

Flight info

Callsign 5NAAT
Flight time N/A
Altitude 10000
Route GURNI W35 BDM
Aircraft BE36/L-BDFGLORY/S

Departure

Time 2026-04-11 05:36
Airport Sultan Hasanuddin International Airport (WAAA)

Arrival

Time N/A
Airport Sampit (H.Asan) Airport (WAGS)
Time Latitude Longitude Altitude Speed Heading
2026-04-11 05:29 -5.05911 119.54741 35 ft 0 kts 231°
2026-04-11 05:29 -5.05916 119.54737 35 ft 4 kts 194°
2026-04-11 05:30 -5.05987 119.54721 35 ft 14 kts 198°
2026-04-11 05:30 -5.06072 119.54652 35 ft 17 kts 218°
2026-04-11 05:30 -5.06175 119.54564 35 ft 23 kts 219°
2026-04-11 05:30 -5.06244 119.54594 35 ft 18 kts 51°
2026-04-11 05:31 -5.06213 119.54737 35 ft 25 kts 81°
2026-04-11 05:31 -5.06190 119.54917 35 ft 26 kts 85°
2026-04-11 05:31 -5.06168 119.55091 35 ft 26 kts 85°
2026-04-11 05:31 -5.06249 119.55240 35 ft 27 kts 130°
2026-04-11 05:32 -5.06375 119.55388 35 ft 30 kts 130°
2026-04-11 05:32 -5.06516 119.55555 36 ft 32 kts 130°
2026-04-11 05:32 -5.06665 119.55732 36 ft 34 kts 130°
2026-04-11 05:32 -5.06683 119.55870 36 ft 19 kts 26°
2026-04-11 05:33 -5.06659 119.55981 36 ft 21 kts 133°
2026-04-11 05:33 -5.06764 119.56104 36 ft 25 kts 128°
2026-04-11 05:33 -5.06841 119.56236 36 ft 17 kts 62°
2026-04-11 05:33 -5.06865 119.56290 36 ft 0 kts 181°
2026-04-11 05:34 -5.06866 119.56290 36 ft 2 kts 197°
2026-04-11 05:34 -5.06878 119.56246 36 ft 11 kts 278°
2026-04-11 05:34 -5.06858 119.56214 36 ft 0 kts 311°
2026-04-11 05:35 -5.06858 119.56213 36 ft 1 kts 310°
2026-04-11 05:36 -5.06805 119.56152 36 ft 37 kts 310°
2026-04-11 05:36 -5.06503 119.55791 93 ft 87 kts 310°
2026-04-11 05:36 -5.06216 119.55223 419 ft 100 kts 276°
2026-04-11 05:36 -5.06067 119.54508 662 ft 110 kts 290°
2026-04-11 05:37 -5.05764 119.53780 970 ft 112 kts 294°
2026-04-11 05:37 -5.05499 119.53008 1273 ft 124 kts 295°
2026-04-11 05:37 -5.05061 119.52242 1499 ft 127 kts 297°
2026-04-11 05:37 -5.04666 119.51455 1742 ft 126 kts 293°
2026-04-11 05:38 -5.04280 119.50657 1972 ft 127 kts 294°
2026-04-11 05:38 -5.03901 119.49866 2203 ft 124 kts 293°
2026-04-11 05:38 -5.03532 119.49081 2449 ft 124 kts 294°
2026-04-11 05:38 -5.03169 119.48305 2677 ft 122 kts 293°
2026-04-11 05:39 -5.02813 119.47544 2910 ft 120 kts 294°
2026-04-11 05:39 -5.02459 119.46791 3150 ft 119 kts 293°
2026-04-11 05:39 -5.02108 119.46041 3378 ft 117 kts 293°
2026-04-11 05:39 -5.01766 119.45311 3613 ft 115 kts 293°
2026-04-11 05:40 -5.01432 119.44596 3818 ft 111 kts 293°
2026-04-11 05:40 -5.01110 119.43910 4047 ft 108 kts 294°
2026-04-11 05:40 -5.00792 119.43226 4285 ft 111 kts 293°
2026-04-11 05:40 -5.00453 119.42501 4540 ft 118 kts 293°
2026-04-11 05:41 -5.00090 119.41734 4796 ft 125 kts 294°
2026-04-11 05:41 -4.99715 119.40935 5046 ft 130 kts 294°
2026-04-11 05:41 -4.99323 119.40109 5296 ft 133 kts 295°
2026-04-11 05:41 -4.98923 119.39261 5546 ft 136 kts 294°
2026-04-11 05:42 -4.98521 119.38397 5796 ft 137 kts 294°
2026-04-11 05:42 -4.98111 119.37528 6046 ft 138 kts 294°
2026-04-11 05:42 -4.97702 119.36653 6294 ft 139 kts 294°
2026-04-11 05:42 -4.97291 119.35776 6528 ft 139 kts 294°
2026-04-11 05:43 -4.96880 119.34901 6756 ft 138 kts 294°
2026-04-11 05:43 -4.96479 119.34049 6984 ft 136 kts 294°
2026-04-11 05:43 -4.96080 119.33197 7217 ft 134 kts 293°
2026-04-11 05:43 -4.95688 119.32361 7448 ft 131 kts 294°
2026-04-11 05:44 -4.95305 119.31544 7683 ft 128 kts 293°
2026-04-11 05:44 -4.94932 119.30750 7908 ft 124 kts 293°
2026-04-11 05:44 -4.94571 119.29980 8138 ft 120 kts 293°
2026-04-11 05:44 -4.94228 119.29249 8367 ft 114 kts 292°
2026-04-11 05:45 -4.93898 119.28544 8590 ft 108 kts 292°
2026-04-11 05:45 -4.93591 119.27883 8816 ft 101 kts 292°
2026-04-11 05:45 -4.93310 119.27277 9025 ft 90 kts 291°
2026-04-11 05:45 -4.93060 119.26738 9136 ft 88 kts 292°
2026-04-11 05:46 -4.92773 119.26140 9139 ft 100 kts 293°
2026-04-11 05:46 -4.92458 119.25482 9147 ft 112 kts 294°
2026-04-11 05:46 -4.92104 119.24742 9150 ft 123 kts 294°
2026-04-11 05:46 -4.91727 119.23942 9149 ft 131 kts 293°
2026-04-11 05:47 -4.91330 119.23096 9144 ft 136 kts 293°
2026-04-11 05:47 -4.90921 119.22224 9142 ft 140 kts 294°
2026-04-11 05:47 -4.90498 119.21324 9143 ft 142 kts 294°
2026-04-11 05:47 -4.90074 119.20420 9141 ft 145 kts 294°
2026-04-11 05:48 -4.89649 119.19515 9141 ft 146 kts 294°
2026-04-11 05:48 -4.89211 119.18584 9138 ft 146 kts 293°
2026-04-11 05:48 -4.88780 119.17667 9138 ft 147 kts 293°
2026-04-11 05:48 -4.88344 119.16740 9141 ft 147 kts 294°
2026-04-11 05:49 -4.87908 119.15811 9135 ft 147 kts 294°
2026-04-11 05:49 -4.87620 119.15198 9142 ft 147 kts 294°
2026-04-11 05:49 -4.87034 119.13951 9138 ft 147 kts 293°
2026-04-11 05:49 -4.86603 119.13034 9133 ft 147 kts 294°
2026-04-11 05:50 -4.86164 119.12100 9135 ft 148 kts 294°
2026-04-11 05:50 -4.85726 119.11167 9133 ft 148 kts 294°
2026-04-11 05:50 -4.85436 119.10550 9134 ft 148 kts 294°
2026-04-11 05:50 -4.84854 119.09312 9134 ft 148 kts 294°
2026-04-11 05:51 -4.84416 119.08379 9133 ft 148 kts 294°
2026-04-11 05:51 -4.84120 119.07750 9131 ft 148 kts 294°
2026-04-11 05:51 -4.83538 119.06512 9130 ft 148 kts 294°
2026-04-11 05:51 -4.83247 119.05892 9133 ft 148 kts 294°
2026-04-11 05:52 -4.82808 119.04959 9129 ft 148 kts 294°
2026-04-11 05:52 -4.82368 119.04024 9128 ft 148 kts 294°
2026-04-11 05:52 -4.81930 119.03090 9128 ft 148 kts 293°
2026-04-11 05:52 -4.81490 119.02156 9128 ft 148 kts 294°
2026-04-11 05:53 -4.81053 119.01225 9128 ft 148 kts 294°
2026-04-11 05:53 -4.80471 118.99987 9127 ft 148 kts 294°
2026-04-11 05:53 -4.80175 118.99358 9127 ft 147 kts 294°
2026-04-11 05:53 -4.79757 118.98470 9239 ft 136 kts 294°
2026-04-11 05:54 -4.79370 118.97643 9396 ft 126 kts 293°
2026-04-11 05:54 -4.79013 118.96881 9547 ft 115 kts 293°
2026-04-11 05:54 -4.78690 118.96188 9690 ft 104 kts 293°
2026-04-11 05:54 -4.78382 118.95531 9676 ft 105 kts 293°
2026-04-11 05:55 -4.78062 118.94850 9685 ft 110 kts 293°
2026-04-11 05:55 -4.77725 118.94139 9692 ft 114 kts 294°
2026-04-11 05:55 -4.77381 118.93410 9702 ft 117 kts 294°
2026-04-11 05:55 -4.77033 118.92672 9702 ft 120 kts 294°
2026-04-11 05:56 -4.76674 118.91908 9707 ft 122 kts 293°
2026-04-11 05:56 -4.76304 118.91122 9700 ft 124 kts 294°
2026-04-11 05:56 -4.75938 118.90345 9702 ft 126 kts 294°
2026-04-11 05:56 -4.75565 118.89550 9699 ft 127 kts 294°
2026-04-11 05:57 -4.75187 118.88747 9697 ft 127 kts 294°
2026-04-11 05:57 -4.74808 118.87944 9699 ft 128 kts 294°
2026-04-11 05:57 -4.74429 118.87137 9702 ft 128 kts 294°
2026-04-11 05:57 -4.74048 118.86327 9703 ft 128 kts 294°
2026-04-11 05:58 -4.73667 118.85516 9702 ft 129 kts 294°
2026-04-11 05:58 -4.73288 118.84712 9697 ft 129 kts 294°
2026-04-11 05:58 -4.72906 118.83900 9704 ft 129 kts 294°
2026-04-11 05:58 -4.72525 118.83092 9700 ft 128 kts 294°
2026-04-11 05:59 -4.72143 118.82279 9699 ft 128 kts 294°
2026-04-11 05:59 -4.71762 118.81469 9700 ft 128 kts 294°
2026-04-11 05:59 -4.71381 118.80659 9703 ft 128 kts 294°
2026-04-11 05:59 -4.71000 118.79849 9700 ft 128 kts 294°
2026-04-11 06:00 -4.70623 118.79047 9701 ft 128 kts 294°
2026-04-11 06:00 -4.70242 118.78240 9700 ft 128 kts 294°
2026-04-11 06:00 -4.69860 118.77428 9699 ft 128 kts 294°
2026-04-11 06:00 -4.69480 118.76619 9700 ft 128 kts 294°
2026-04-11 06:01 -4.69100 118.75811 9698 ft 128 kts 294°
2026-04-11 06:01 -4.68719 118.75003 9699 ft 128 kts 294°
2026-04-11 06:01 -4.68344 118.74205 9700 ft 128 kts 294°
2026-04-11 06:01 -4.67964 118.73397 9699 ft 128 kts 294°
2026-04-11 06:02 -4.67583 118.72589 9704 ft 128 kts 294°
2026-04-11 06:02 -4.67202 118.71781 9701 ft 128 kts 294°
2026-04-11 06:02 -4.66822 118.70973 9703 ft 128 kts 294°
2026-04-11 06:02 -4.66441 118.70162 9706 ft 128 kts 294°
2026-04-11 06:03 -4.66060 118.69353 9695 ft 129 kts 294°
2026-04-11 06:03 -4.65678 118.68542 9699 ft 129 kts 294°
2026-04-11 06:03 -4.65297 118.67734 9698 ft 128 kts 294°
2026-04-11 06:03 -4.64923 118.66938 9753 ft 123 kts 294°
2026-04-11 06:04 -4.64580 118.66206 9895 ft 109 kts 293°
2026-04-11 06:04 -4.64272 118.65543 9963 ft 103 kts 293°
2026-04-11 06:04 -4.63962 118.64883 9965 ft 106 kts 294°
2026-04-11 06:04 -4.63634 118.64192 9972 ft 113 kts 294°
2026-04-11 06:05 -4.63292 118.63474 9981 ft 118 kts 294°
2026-04-11 06:05 -4.62935 118.62717 9988 ft 123 kts 294°
2026-04-11 06:05 -4.62562 118.61925 9987 ft 127 kts 294°
2026-04-11 06:05 -4.62181 118.61116 9984 ft 130 kts 294°
2026-04-11 06:06 -4.61403 118.59466 9982 ft 133 kts 294°
2026-04-11 06:06 -4.61006 118.58621 9982 ft 134 kts 294°
2026-04-11 06:06 -4.60607 118.57774 9983 ft 134 kts 294°
2026-04-11 06:07 -4.60206 118.56923 9983 ft 135 kts 294°
2026-04-11 06:07 -4.59803 118.56068 9983 ft 135 kts 294°
2026-04-11 06:07 -4.59401 118.55215 9976 ft 136 kts 294°
2026-04-11 06:07 -4.58999 118.54360 9980 ft 136 kts 294°
2026-04-11 06:08 -4.58601 118.53516 9979 ft 136 kts 294°
2026-04-11 06:08 -4.58198 118.52661 9979 ft 136 kts 294°
2026-04-11 06:08 -4.57795 118.51804 9976 ft 136 kts 294°
2026-04-11 06:08 -4.57391 118.50948 9979 ft 136 kts 294°
2026-04-11 06:09 -4.56987 118.50092 9979 ft 136 kts 294°
2026-04-11 06:09 -4.56583 118.49235 9979 ft 135 kts 294°
2026-04-11 06:09 -4.56181 118.48380 9977 ft 136 kts 294°
2026-04-11 06:09 -4.55783 118.47537 9980 ft 136 kts 294°
2026-04-11 06:10 -4.55379 118.46679 9979 ft 135 kts 294°
2026-04-11 06:10 -4.54976 118.45824 9980 ft 136 kts 294°
2026-04-11 06:10 -4.54573 118.44968 9980 ft 136 kts 294°
2026-04-11 06:10 -4.54170 118.44112 9981 ft 136 kts 294°
2026-04-11 06:11 -4.53766 118.43256 9978 ft 136 kts 294°
2026-04-11 06:11 -4.53363 118.42401 9980 ft 136 kts 294°
2026-04-11 06:11 -4.52965 118.41556 9978 ft 136 kts 294°
2026-04-11 06:11 -4.52562 118.40701 9979 ft 136 kts 294°
2026-04-11 06:12 -4.52159 118.39847 9979 ft 135 kts 294°
2026-04-11 06:12 -4.51756 118.38992 9979 ft 135 kts 294°
2026-04-11 06:12 -4.51353 118.38137 9979 ft 135 kts 294°
2026-04-11 06:12 -4.50950 118.37283 9979 ft 135 kts 294°
2026-04-11 06:13 -4.50548 118.36428 9979 ft 136 kts 294°
2026-04-11 06:13 -4.50146 118.35577 9981 ft 135 kts 294°
2026-04-11 06:13 -4.49743 118.34722 9981 ft 135 kts 294°
2026-04-11 06:13 -4.49340 118.33868 9982 ft 135 kts 294°
2026-04-11 06:14 -4.48939 118.33018 9977 ft 135 kts 294°
2026-04-11 06:14 -4.48538 118.32166 9977 ft 135 kts 294°
2026-04-11 06:14 -4.48137 118.31315 9977 ft 135 kts 294°
2026-04-11 06:14 -4.47741 118.30475 9978 ft 135 kts 294°
2026-04-11 06:15 -4.47339 118.29624 9982 ft 135 kts 294°
2026-04-11 06:15 -4.46937 118.28772 9981 ft 135 kts 294°
2026-04-11 06:15 -4.46537 118.27922 9980 ft 135 kts 294°
2026-04-11 06:15 -4.46136 118.27075 9982 ft 135 kts 294°
2026-04-11 06:16 -4.45734 118.26221 9980 ft 135 kts 294°
2026-04-11 06:16 -4.45333 118.25370 9981 ft 135 kts 294°
2026-04-11 06:16 -4.44934 118.24523 9983 ft 135 kts 294°
2026-04-11 06:16 -4.44532 118.23673 9983 ft 135 kts 294°
2026-04-11 06:17 -4.44131 118.22822 9981 ft 135 kts 294°
2026-04-11 06:17 -4.43736 118.21984 9984 ft 135 kts 294°
2026-04-11 06:17 -4.43334 118.21132 9982 ft 135 kts 294°
2026-04-11 06:17 -4.42935 118.20286 9981 ft 135 kts 294°
2026-04-11 06:18 -4.42533 118.19435 9979 ft 135 kts 294°
2026-04-11 06:18 -4.42132 118.18585 9980 ft 135 kts 294°
2026-04-11 06:18 -4.41734 118.17740 9980 ft 136 kts 294°
2026-04-11 06:18 -4.41331 118.16886 9976 ft 135 kts 294°
2026-04-11 06:19 -4.40929 118.16036 9979 ft 135 kts 294°
2026-04-11 06:19 -4.40528 118.15185 9977 ft 135 kts 294°
2026-04-11 06:19 -4.40125 118.14331 9978 ft 135 kts 294°
2026-04-11 06:19 -4.39724 118.13480 9980 ft 135 kts 294°
2026-04-11 06:20 -4.39324 118.12633 9978 ft 135 kts 294°
2026-04-11 06:20 -4.38922 118.11782 9977 ft 135 kts 294°
2026-04-11 06:20 -4.38521 118.10931 9977 ft 135 kts 294°
2026-04-11 06:20 -4.38123 118.10089 9977 ft 135 kts 294°
2026-04-11 06:21 -4.37722 118.09240 9976 ft 135 kts 294°
2026-04-11 06:21 -4.37321 118.08390 9980 ft 135 kts 294°
2026-04-11 06:21 -4.36921 118.07542 9980 ft 134 kts 294°
2026-04-11 06:21 -4.36520 118.06694 9980 ft 134 kts 294°
2026-04-11 06:22 -4.36125 118.05856 9980 ft 134 kts 294°
2026-04-11 06:22 -4.35724 118.05006 9982 ft 134 kts 294°
2026-04-11 06:22 -4.35325 118.04160 9980 ft 135 kts 294°
2026-04-11 06:22 -4.34923 118.03309 9979 ft 135 kts 294°
2026-04-11 06:23 -4.34525 118.02466 9978 ft 135 kts 294°
2026-04-11 06:23 -4.34121 118.01611 9979 ft 135 kts 294°
2026-04-11 06:23 -4.33720 118.00762 9976 ft 135 kts 294°
2026-04-11 06:23 -4.33320 117.99914 9979 ft 135 kts 294°
2026-04-11 06:24 -4.32924 117.99077 9978 ft 135 kts 294°
2026-04-11 06:24 -4.32523 117.98227 9980 ft 135 kts 294°
2026-04-11 06:24 -4.32123 117.97378 9979 ft 135 kts 294°
2026-04-11 06:24 -4.31722 117.96529 9980 ft 134 kts 294°
2026-04-11 06:25 -4.31321 117.95681 9981 ft 134 kts 294°
2026-04-11 06:25 -4.30921 117.94834 9979 ft 134 kts 294°
2026-04-11 06:25 -4.30522 117.93990 9979 ft 134 kts 294°
2026-04-11 06:25 -4.30122 117.93143 9979 ft 134 kts 294°
2026-04-11 06:26 -4.29722 117.92295 9979 ft 134 kts 294°
2026-04-11 06:26 -4.29328 117.91461 9977 ft 134 kts 294°
2026-04-11 06:26 -4.28927 117.90612 9979 ft 134 kts 294°
2026-04-11 06:26 -4.28528 117.89767 9979 ft 134 kts 294°
2026-04-11 06:27 -4.28129 117.88923 9975 ft 134 kts 294°
2026-04-11 06:27 -4.27730 117.88079 9978 ft 134 kts 294°
2026-04-11 06:27 -4.27332 117.87237 9978 ft 134 kts 294°
2026-04-11 06:27 -4.26935 117.86395 9978 ft 134 kts 294°
2026-04-11 06:28 -4.26536 117.85551 9981 ft 134 kts 294°
2026-04-11 06:28 -4.26142 117.84717 9980 ft 134 kts 294°
2026-04-11 06:28 -4.25743 117.83874 9981 ft 134 kts 294°
2026-04-11 06:28 -4.25345 117.83030 9980 ft 134 kts 294°
2026-04-11 06:29 -4.24954 117.82201 9982 ft 134 kts 294°
2026-04-11 06:29 -4.24550 117.81347 9981 ft 134 kts 294°
2026-04-11 06:29 -4.24151 117.80504 9977 ft 134 kts 294°
2026-04-11 06:29 -4.23752 117.79658 9978 ft 134 kts 294°
2026-04-11 06:30 -4.23355 117.78818 9978 ft 134 kts 294°
2026-04-11 06:30 -4.22956 117.77974 9979 ft 134 kts 294°
2026-04-11 06:30 -4.22557 117.77130 9980 ft 134 kts 294°
2026-04-11 06:30 -4.22163 117.76295 9976 ft 134 kts 294°
2026-04-11 06:31 -4.21764 117.75452 9979 ft 134 kts 294°
2026-04-11 06:31 -4.21366 117.74610 9979 ft 133 kts 294°
2026-04-11 06:31 -4.20967 117.73767 9976 ft 133 kts 294°
2026-04-11 06:31 -4.20570 117.72926 9978 ft 133 kts 294°
2026-04-11 06:32 -4.20179 117.72097 9977 ft 133 kts 294°
2026-04-11 06:32 -4.19782 117.71257 9977 ft 133 kts 294°
2026-04-11 06:32 -4.19384 117.70417 9978 ft 133 kts 294°
2026-04-11 06:32 -4.18986 117.69575 9978 ft 133 kts 294°
2026-04-11 06:33 -4.18589 117.68735 9975 ft 133 kts 294°
2026-04-11 06:33 -4.18192 117.67895 9975 ft 133 kts 294°
2026-04-11 06:33 -4.17797 117.67060 9976 ft 133 kts 294°
2026-04-11 06:33 -4.17401 117.66221 9973 ft 133 kts 294°
2026-04-11 06:34 -4.17005 117.65383 9977 ft 133 kts 294°
2026-04-11 06:34 -4.16612 117.64553 9976 ft 133 kts 294°
2026-04-11 06:34 -4.16213 117.63708 9977 ft 134 kts 294°
2026-04-11 06:34 -4.15814 117.62865 9975 ft 134 kts 294°
2026-04-11 06:35 -4.15414 117.62021 9979 ft 134 kts 293°
2026-04-11 06:35 -4.15014 117.61174 9983 ft 134 kts 294°
2026-04-11 06:35 -4.14750 117.60616 9980 ft 134 kts 294°
2026-04-11 06:35 -4.14215 117.59485 9979 ft 134 kts 293°
2026-04-11 06:36 -4.13821 117.58651 9979 ft 134 kts 293°
2026-04-11 06:36 -4.13422 117.57807 9979 ft 134 kts 294°
2026-04-11 06:36 -4.13022 117.56960 9980 ft 134 kts 293°
2026-04-11 06:36 -4.12758 117.56403 9980 ft 134 kts 293°
2026-04-11 06:37 -4.12359 117.55560 9976 ft 134 kts 293°
2026-04-11 06:37 -4.11961 117.54717 9977 ft 134 kts 293°
2026-04-11 06:37 -4.11432 117.53599 9976 ft 134 kts 293°
2026-04-11 06:37 -4.11033 117.52756 9976 ft 134 kts 293°
2026-04-11 06:38 -4.10764 117.52187 9975 ft 134 kts 294°
2026-04-11 06:38 -4.10369 117.51352 9976 ft 134 kts 293°
2026-04-11 06:38 -4.09970 117.50510 9977 ft 134 kts 293°
2026-04-11 06:38 -4.09572 117.49668 9976 ft 133 kts 294°
2026-04-11 06:39 -4.09173 117.48825 9980 ft 133 kts 294°
2026-04-11 06:39 -4.08776 117.47983 9979 ft 133 kts 293°
2026-04-11 06:39 -4.08383 117.47155 9979 ft 133 kts 293°
2026-04-11 06:39 -4.07985 117.46314 9981 ft 133 kts 293°
2026-04-11 06:40 -4.07587 117.45472 9979 ft 134 kts 293°
2026-04-11 06:40 -4.07189 117.44631 9979 ft 133 kts 293°
2026-04-11 06:40 -4.06790 117.43788 9980 ft 133 kts 293°
2026-04-11 06:40 -4.06394 117.42950 9976 ft 133 kts 293°
2026-04-11 06:41 -4.05996 117.42110 9978 ft 133 kts 293°
2026-04-11 06:41 -4.05599 117.41271 9979 ft 133 kts 293°
2026-04-11 06:41 -4.05207 117.40444 9979 ft 133 kts 293°
2026-04-11 06:41 -4.04810 117.39605 9976 ft 133 kts 293°
2026-04-11 06:42 -4.04412 117.38764 9975 ft 133 kts 293°
2026-04-11 06:42 -4.04016 117.37927 9975 ft 133 kts 293°
2026-04-11 06:42 -4.03618 117.37086 9974 ft 133 kts 293°
2026-04-11 06:42 -4.03221 117.36246 9977 ft 133 kts 293°
2026-04-11 06:43 -4.02823 117.35405 9978 ft 133 kts 293°
2026-04-11 06:43 -4.02424 117.34565 9977 ft 133 kts 293°
2026-04-11 06:43 -4.02027 117.33724 9977 ft 134 kts 293°
2026-04-11 06:43 -4.01632 117.32890 9977 ft 134 kts 293°
2026-04-11 06:44 -4.01233 117.32048 9975 ft 134 kts 293°
2026-04-11 06:44 -4.00834 117.31205 9975 ft 134 kts 293°
2026-04-11 06:44 -4.00433 117.30359 9976 ft 134 kts 293°
2026-04-11 06:44 -4.00037 117.29520 9976 ft 134 kts 293°
2026-04-11 06:45 -3.99642 117.28688 9979 ft 133 kts 293°
2026-04-11 06:45 -3.99245 117.27847 9978 ft 133 kts 293°
2026-04-11 06:45 -3.98846 117.27006 9980 ft 133 kts 293°
2026-04-11 06:45 -3.98448 117.26166 9979 ft 133 kts 293°
2026-04-11 06:46 -3.98053 117.25327 9981 ft 133 kts 291°
2026-04-11 06:46 -3.97836 117.24440 9980 ft 131 kts 279°
2026-04-11 06:46 -3.97645 117.23544 9977 ft 132 kts 280°
2026-04-11 06:46 -3.97452 117.22647 9979 ft 132 kts 280°
2026-04-11 06:47 -3.97260 117.21745 9978 ft 132 kts 280°
2026-04-11 06:47 -3.97067 117.20849 9976 ft 132 kts 280°
2026-04-11 06:47 -3.96875 117.19951 9978 ft 132 kts 280°
2026-04-11 06:47 -3.96683 117.19052 9977 ft 132 kts 280°
2026-04-11 06:48 -3.96493 117.18163 9973 ft 132 kts 280°
2026-04-11 06:48 -3.96301 117.17264 9977 ft 132 kts 280°
2026-04-11 06:48 -3.96108 117.16366 9976 ft 132 kts 280°
2026-04-11 06:48 -3.95915 117.15466 9976 ft 132 kts 280°
2026-04-11 06:49 -3.95725 117.14576 9975 ft 132 kts 280°
2026-04-11 06:49 -3.95530 117.13667 9977 ft 132 kts 280°
2026-04-11 06:49 -3.95338 117.12768 9977 ft 132 kts 280°
2026-04-11 06:49 -3.95147 117.11879 9977 ft 132 kts 280°
2026-04-11 06:50 -3.94956 117.10980 9975 ft 132 kts 280°
2026-04-11 06:50 -3.94763 117.10082 9972 ft 132 kts 280°
2026-04-11 06:50 -3.94570 117.09183 9976 ft 132 kts 280°
2026-04-11 06:50 -3.94380 117.08293 9973 ft 132 kts 280°
2026-04-11 06:51 -3.94188 117.07395 9974 ft 132 kts 280°
2026-04-11 06:51 -3.93996 117.06500 9974 ft 132 kts 279°
2026-04-11 06:51 -3.93803 117.05599 9974 ft 132 kts 280°
2026-04-11 06:51 -3.93611 117.04701 9979 ft 132 kts 280°
2026-04-11 06:52 -3.93418 117.03803 9978 ft 132 kts 280°
2026-04-11 06:52 -3.93225 117.02904 9978 ft 132 kts 280°
2026-04-11 06:52 -3.93033 117.02005 9977 ft 132 kts 280°
2026-04-11 06:52 -3.92843 117.01118 9978 ft 132 kts 280°
2026-04-11 06:53 -3.92651 117.00218 9973 ft 132 kts 280°
2026-04-11 06:53 -3.92455 116.99308 9975 ft 132 kts 280°
2026-04-11 06:53 -3.92265 116.98421 9977 ft 132 kts 280°
2026-04-11 06:53 -3.92072 116.97519 9977 ft 132 kts 280°
2026-04-11 06:54 -3.91880 116.96622 9974 ft 132 kts 280°
2026-04-11 06:54 -3.91687 116.95722 9974 ft 132 kts 280°
2026-04-11 06:54 -3.91493 116.94820 9971 ft 132 kts 280°
2026-04-11 06:54 -3.91303 116.93930 9972 ft 132 kts 280°
2026-04-11 06:55 -3.91111 116.93033 9972 ft 132 kts 280°
2026-04-11 06:55 -3.90919 116.92135 9974 ft 132 kts 280°
2026-04-11 06:55 -3.90725 116.91235 9972 ft 132 kts 280°
2026-04-11 06:55 -3.90532 116.90337 9972 ft 132 kts 280°
2026-04-11 06:56 -3.90341 116.89441 9974 ft 132 kts 280°
2026-04-11 06:56 -3.90148 116.88540 9974 ft 132 kts 280°
2026-04-11 06:56 -3.89958 116.87653 9973 ft 132 kts 280°
2026-04-11 06:56 -3.89764 116.86751 9972 ft 132 kts 280°
2026-04-11 06:57 -3.89571 116.85850 9974 ft 132 kts 280°
2026-04-11 06:57 -3.89379 116.84953 9974 ft 132 kts 280°
2026-04-11 06:57 -3.89189 116.84069 9974 ft 131 kts 280°
2026-04-11 06:57 -3.88996 116.83173 9972 ft 132 kts 280°
2026-04-11 06:58 -3.88804 116.82275 9971 ft 132 kts 280°
2026-04-11 06:58 -3.88611 116.81375 9972 ft 132 kts 280°
2026-04-11 06:58 -3.88420 116.80486 9971 ft 132 kts 279°
2026-04-11 06:58 -3.88228 116.79587 9970 ft 132 kts 280°
2026-04-11 06:59 -3.88036 116.78691 9972 ft 132 kts 280°
2026-04-11 06:59 -3.87843 116.77793 9973 ft 132 kts 280°
2026-04-11 06:59 -3.87650 116.76895 9973 ft 132 kts 280°
2026-04-11 06:59 -3.87457 116.75997 9974 ft 132 kts 280°
2026-04-11 07:00 -3.87264 116.75098 9975 ft 132 kts 279°
2026-04-11 07:00 -3.87072 116.74201 9971 ft 132 kts 279°
2026-04-11 07:00 -3.86880 116.73304 9972 ft 131 kts 279°
2026-04-11 07:00 -3.86690 116.72421 9974 ft 131 kts 279°
2026-04-11 07:01 -3.86498 116.71525 9971 ft 131 kts 279°
2026-04-11 07:01 -3.86303 116.70617 9974 ft 131 kts 279°
2026-04-11 07:01 -3.86113 116.69735 9970 ft 132 kts 279°
2026-04-11 07:01 -3.85921 116.68836 9970 ft 132 kts 280°
2026-04-11 07:02 -3.85728 116.67934 9968 ft 132 kts 279°
2026-04-11 07:02 -3.85535 116.67040 9969 ft 132 kts 279°
2026-04-11 07:02 -3.85342 116.66141 9970 ft 131 kts 279°
2026-04-11 07:02 -3.85151 116.65247 9967 ft 131 kts 279°
2026-04-11 07:03 -3.84958 116.64352 9967 ft 131 kts 279°
2026-04-11 07:03 -3.84766 116.63460 9966 ft 131 kts 279°
2026-04-11 07:03 -3.84574 116.62562 9965 ft 131 kts 280°
2026-04-11 07:03 -3.84384 116.61677 9966 ft 131 kts 279°
2026-04-11 07:04 -3.84192 116.60784 9969 ft 131 kts 279°
2026-04-11 07:04 -3.84001 116.59893 9971 ft 131 kts 279°
2026-04-11 07:04 -3.83808 116.58995 9971 ft 131 kts 279°
2026-04-11 07:04 -3.83616 116.58101 9968 ft 131 kts 279°
2026-04-11 07:05 -3.83424 116.57207 9963 ft 131 kts 279°
2026-04-11 07:05 -3.83233 116.56316 9962 ft 131 kts 279°
2026-04-11 07:05 -3.83046 116.55449 9964 ft 131 kts 279°
2026-04-11 07:05 -3.82853 116.54546 9962 ft 131 kts 279°
2026-04-11 07:06 -3.82660 116.53652 9970 ft 131 kts 279°
2026-04-11 07:06 -3.82469 116.52765 9967 ft 131 kts 279°
2026-04-11 07:06 -3.82278 116.51869 9965 ft 132 kts 279°
2026-04-11 07:06 -3.82087 116.50982 9966 ft 132 kts 279°
2026-04-11 07:07 -3.81893 116.50082 9970 ft 132 kts 279°
2026-04-11 07:07 -3.81701 116.49184 9969 ft 132 kts 280°
2026-04-11 07:07 -3.81508 116.48290 9967 ft 132 kts 279°
2026-04-11 07:07 -3.81315 116.47392 9963 ft 132 kts 279°
2026-04-11 07:08 -3.81123 116.46496 9965 ft 132 kts 279°
2026-04-11 07:08 -3.80928 116.45590 9961 ft 132 kts 279°
2026-04-11 07:08 -3.80735 116.44695 9964 ft 132 kts 279°
2026-04-11 07:08 -3.80545 116.43809 9966 ft 132 kts 279°
2026-04-11 07:09 -3.80351 116.42906 9964 ft 132 kts 279°
2026-04-11 07:09 -3.80160 116.42016 9965 ft 132 kts 279°
2026-04-11 07:09 -3.79966 116.41117 9962 ft 132 kts 279°
2026-04-11 07:09 -3.79771 116.40210 9963 ft 132 kts 279°
2026-04-11 07:10 -3.79388 116.38429 9967 ft 132 kts 279°
2026-04-11 07:10 -3.79195 116.37529 9964 ft 132 kts 279°
2026-04-11 07:10 -3.78999 116.36619 9963 ft 132 kts 279°
2026-04-11 07:11 -3.78805 116.35713 9961 ft 132 kts 279°
2026-04-11 07:11 -3.78611 116.34815 9961 ft 132 kts 279°
2026-04-11 07:11 -3.78418 116.33918 9961 ft 132 kts 279°
2026-04-11 07:11 -3.78228 116.33034 9960 ft 131 kts 279°
2026-04-11 07:12 -3.78036 116.32139 9962 ft 131 kts 279°
2026-04-11 07:12 -3.77843 116.31244 9960 ft 132 kts 280°
2026-04-11 07:12 -3.77651 116.30350 9963 ft 132 kts 280°
2026-04-11 07:12 -3.77456 116.29447 9964 ft 132 kts 279°
2026-04-11 07:13 -3.77263 116.28547 9963 ft 133 kts 279°
2026-04-11 07:13 -3.77068 116.27645 9965 ft 133 kts 279°
2026-04-11 07:13 -3.76874 116.26738 9964 ft 132 kts 279°
2026-04-11 07:13 -3.76680 116.25836 9964 ft 132 kts 279°
2026-04-11 07:14 -3.76488 116.24947 9959 ft 132 kts 279°
2026-04-11 07:14 -3.76294 116.24044 9958 ft 132 kts 279°
2026-04-11 07:14 -3.76101 116.23146 9961 ft 132 kts 279°
2026-04-11 07:14 -3.75908 116.22250 9957 ft 131 kts 279°
2026-04-11 07:15 -3.75716 116.21356 9959 ft 131 kts 280°
2026-04-11 07:15 -3.75525 116.20470 9957 ft 131 kts 280°
2026-04-11 07:15 -3.75332 116.19575 9961 ft 131 kts 279°
2026-04-11 07:15 -3.75139 116.18679 9958 ft 131 kts 279°
2026-04-11 07:16 -3.74946 116.17784 9959 ft 131 kts 280°
2026-04-11 07:16 -3.74755 116.16892 9958 ft 131 kts 280°
2026-04-11 07:16 -3.74562 116.15996 9958 ft 132 kts 280°
2026-04-11 07:16 -3.74368 116.15096 9955 ft 132 kts 280°
2026-04-11 07:17 -3.74178 116.14213 9954 ft 131 kts 280°
2026-04-11 07:17 -3.73985 116.13315 9958 ft 131 kts 280°
2026-04-11 07:17 -3.73791 116.12419 9955 ft 132 kts 280°
2026-04-11 07:17 -3.73599 116.11527 9955 ft 131 kts 279°
2026-04-11 07:18 -3.73407 116.10633 9956 ft 132 kts 280°
2026-04-11 07:18 -3.73213 116.09733 9957 ft 132 kts 280°
2026-04-11 07:18 -3.73020 116.08839 9956 ft 131 kts 279°
2026-04-11 07:18 -3.72830 116.07955 9957 ft 131 kts 280°
2026-04-11 07:19 -3.72638 116.07064 9954 ft 132 kts 279°
2026-04-11 07:19 -3.72444 116.06164 9950 ft 131 kts 279°
2026-04-11 07:19 -3.72252 116.05268 9948 ft 131 kts 279°
2026-04-11 07:19 -3.72058 116.04371 9950 ft 132 kts 279°
2026-04-11 07:20 -3.71865 116.03478 9950 ft 132 kts 279°
2026-04-11 07:20 -3.71672 116.02581 9950 ft 132 kts 279°
2026-04-11 07:20 -3.71481 116.01694 9948 ft 132 kts 279°
2026-04-11 07:20 -3.71287 116.00794 9948 ft 132 kts 279°
2026-04-11 07:21 -3.71095 115.99902 9947 ft 131 kts 279°
2026-04-11 07:21 -3.70901 115.99004 9949 ft 131 kts 279°
2026-04-11 07:21 -3.70709 115.98110 9948 ft 131 kts 279°
2026-04-11 07:21 -3.70516 115.97216 9948 ft 131 kts 279°
2026-04-11 07:22 -3.70326 115.96334 9948 ft 131 kts 279°
2026-04-11 07:22 -3.70133 115.95437 9946 ft 131 kts 279°
2026-04-11 07:22 -3.69941 115.94547 9945 ft 131 kts 279°
2026-04-11 07:22 -3.69748 115.93655 9946 ft 131 kts 279°
2026-04-11 07:23 -3.69556 115.92762 9944 ft 131 kts 279°
2026-04-11 07:23 -3.69363 115.91869 9944 ft 131 kts 279°
2026-04-11 07:23 -3.69171 115.90979 9945 ft 131 kts 279°
2026-04-11 07:23 -3.68979 115.90086 9944 ft 131 kts 279°
2026-04-11 07:24 -3.68852 115.89495 9945 ft 131 kts 280°
2026-04-11 07:24 -3.68594 115.88302 9946 ft 131 kts 279°
2026-04-11 07:24 -3.68467 115.87710 9945 ft 131 kts 279°
2026-04-11 07:24 -3.68211 115.86525 9943 ft 131 kts 279°
2026-04-11 07:25 -3.68081 115.85922 9944 ft 131 kts 279°
2026-04-11 07:25 -3.67833 115.84754 9952 ft 128 kts 279°
2026-04-11 07:25 -3.67707 115.84174 9950 ft 129 kts 280°
2026-04-11 07:25 -3.67513 115.83297 9953 ft 129 kts 280°
2026-04-11 07:26 -3.67323 115.82414 9950 ft 130 kts 280°
2026-04-11 07:26 -3.67134 115.81533 9952 ft 130 kts 279°
2026-04-11 07:26 -3.66943 115.80650 9951 ft 130 kts 279°
2026-04-11 07:26 -3.66753 115.79766 9953 ft 130 kts 280°
2026-04-11 07:27 -3.66562 115.78880 9952 ft 130 kts 279°
2026-04-11 07:27 -3.66371 115.77995 9953 ft 130 kts 279°
2026-04-11 07:27 -3.66179 115.77103 9952 ft 130 kts 279°
2026-04-11 07:27 -3.65987 115.76218 9952 ft 131 kts 279°
2026-04-11 07:28 -3.65797 115.75338 9953 ft 130 kts 279°
2026-04-11 07:28 -3.65606 115.74449 9953 ft 130 kts 279°
2026-04-11 07:28 -3.65414 115.73559 9951 ft 131 kts 279°
2026-04-11 07:28 -3.65221 115.72668 9950 ft 131 kts 279°
2026-04-11 07:29 -3.65030 115.71779 9954 ft 131 kts 280°
2026-04-11 07:29 -3.64837 115.70888 9952 ft 131 kts 279°
2026-04-11 07:29 -3.64644 115.69994 9953 ft 131 kts 279°
2026-04-11 07:29 -3.64454 115.69111 9950 ft 131 kts 280°
2026-04-11 07:30 -3.64260 115.68216 9951 ft 131 kts 279°
2026-04-11 07:30 -3.64067 115.67317 9946 ft 132 kts 280°
2026-04-11 07:30 -3.63872 115.66420 9944 ft 131 kts 279°
2026-04-11 07:30 -3.63679 115.65523 9950 ft 131 kts 279°
2026-04-11 07:31 -3.63486 115.64631 9946 ft 131 kts 279°
2026-04-11 07:31 -3.63296 115.63752 9945 ft 131 kts 279°
2026-04-11 07:31 -3.63104 115.62860 9948 ft 131 kts 280°
2026-04-11 07:31 -3.62911 115.61966 9948 ft 131 kts 279°
2026-04-11 07:32 -3.62718 115.61075 9948 ft 131 kts 279°
2026-04-11 07:32 -3.62525 115.60183 9951 ft 131 kts 279°
2026-04-11 07:32 -3.62332 115.59286 9948 ft 131 kts 280°
2026-04-11 07:32 -3.62139 115.58394 9950 ft 131 kts 279°
2026-04-11 07:33 -3.61948 115.57508 9951 ft 131 kts 280°
2026-04-11 07:33 -3.61752 115.56604 9953 ft 132 kts 279°
2026-04-11 07:33 -3.61561 115.55718 9952 ft 132 kts 280°
2026-04-11 07:33 -3.61367 115.54821 9952 ft 132 kts 279°
2026-04-11 07:34 -3.61174 115.53928 9951 ft 131 kts 280°
2026-04-11 07:34 -3.60982 115.53038 9951 ft 130 kts 279°
2026-04-11 07:34 -3.60790 115.52153 9948 ft 130 kts 280°
2026-04-11 07:34 -3.60599 115.51264 9949 ft 131 kts 279°
2026-04-11 07:35 -3.60406 115.50372 9950 ft 130 kts 279°
2026-04-11 07:35 -3.60217 115.49495 9949 ft 131 kts 279°
2026-04-11 07:35 -3.60024 115.48602 9952 ft 131 kts 279°
2026-04-11 07:35 -3.59832 115.47711 9950 ft 131 kts 279°
2026-04-11 07:36 -3.59639 115.46820 9947 ft 130 kts 279°
2026-04-11 07:36 -3.59447 115.45936 9949 ft 131 kts 279°
2026-04-11 07:36 -3.59254 115.45044 9950 ft 131 kts 280°
2026-04-11 07:36 -3.59064 115.44166 9949 ft 130 kts 279°
2026-04-11 07:37 -3.58871 115.43271 9951 ft 130 kts 279°
2026-04-11 07:37 -3.58682 115.42396 9946 ft 130 kts 279°
2026-04-11 07:37 -3.58491 115.41514 9948 ft 130 kts 279°
2026-04-11 07:37 -3.58300 115.40629 9947 ft 129 kts 280°
2026-04-11 07:38 -3.58110 115.39750 9952 ft 129 kts 279°
2026-04-11 07:38 -3.57919 115.38867 9947 ft 129 kts 279°
2026-04-11 07:38 -3.57729 115.37986 9948 ft 130 kts 280°
2026-04-11 07:38 -3.57536 115.37099 9952 ft 130 kts 280°
2026-04-11 07:39 -3.57345 115.36216 9951 ft 130 kts 279°
2026-04-11 07:39 -3.57156 115.35342 9951 ft 130 kts 280°
2026-04-11 07:39 -3.56965 115.34457 9950 ft 130 kts 279°
2026-04-11 07:39 -3.56775 115.33575 9950 ft 130 kts 279°
2026-04-11 07:40 -3.56583 115.32690 9947 ft 129 kts 279°
2026-04-11 07:40 -3.56393 115.31812 9949 ft 129 kts 280°
2026-04-11 07:40 -3.56202 115.30931 9948 ft 129 kts 280°
2026-04-11 07:40 -3.56011 115.30045 9952 ft 129 kts 280°
2026-04-11 07:41 -3.55820 115.29168 9950 ft 129 kts 279°
2026-04-11 07:41 -3.55633 115.28302 9944 ft 129 kts 279°
2026-04-11 07:41 -3.55445 115.27426 9948 ft 129 kts 279°
2026-04-11 07:41 -3.55254 115.26547 9946 ft 129 kts 280°
2026-04-11 07:42 -3.55065 115.25673 9946 ft 128 kts 280°
2026-04-11 07:42 -3.54875 115.24798 9949 ft 129 kts 279°
2026-04-11 07:42 -3.54686 115.23923 9948 ft 129 kts 279°
2026-04-11 07:43 -3.54306 115.22161 9947 ft 129 kts 280°
2026-04-11 07:43 -3.54116 115.21289 9951 ft 130 kts 279°
2026-04-11 07:43 -3.53923 115.20400 9947 ft 132 kts 280°
2026-04-11 07:43 -3.53727 115.19494 9949 ft 133 kts 279°
2026-04-11 07:44 -3.53532 115.18594 9949 ft 132 kts 279°
2026-04-11 07:44 -3.53337 115.17694 9949 ft 132 kts 280°
2026-04-11 07:44 -3.53143 115.16796 9947 ft 132 kts 279°
2026-04-11 07:44 -3.52949 115.15902 9947 ft 131 kts 279°
2026-04-11 07:45 -3.52758 115.15019 9946 ft 131 kts 280°
2026-04-11 07:45 -3.52565 115.14125 9944 ft 131 kts 279°
2026-04-11 07:45 -3.52371 115.13233 9941 ft 131 kts 280°
2026-04-11 07:45 -3.52178 115.12339 9941 ft 131 kts 280°
2026-04-11 07:46 -3.51985 115.11449 9943 ft 131 kts 280°
2026-04-11 07:46 -3.51794 115.10562 9944 ft 131 kts 280°
2026-04-11 07:46 -3.51600 115.09669 9942 ft 131 kts 280°
2026-04-11 07:46 -3.51408 115.08783 9944 ft 130 kts 279°
2026-04-11 07:47 -3.51215 115.07895 9940 ft 130 kts 280°
2026-04-11 07:47 -3.51024 115.07008 9940 ft 130 kts 280°
2026-04-11 07:47 -3.50831 115.06117 9937 ft 130 kts 280°
2026-04-11 07:47 -3.50641 115.05246 9935 ft 130 kts 280°
2026-04-11 07:48 -3.50451 115.04365 9936 ft 129 kts 280°
2026-04-11 07:48 -3.50258 115.03477 9936 ft 131 kts 280°
2026-04-11 07:48 -3.50063 115.02571 9936 ft 135 kts 280°
2026-04-11 07:48 -3.49861 115.01643 9932 ft 137 kts 280°
2026-04-11 07:49 -3.49661 115.00728 9931 ft 136 kts 280°
2026-04-11 07:49 -3.49463 114.99812 9929 ft 133 kts 280°
2026-04-11 07:49 -3.49268 114.98909 9929 ft 133 kts 280°
2026-04-11 07:49 -3.49073 114.98008 9926 ft 132 kts 280°
2026-04-11 07:50 -3.48878 114.97107 9922 ft 131 kts 280°
2026-04-11 07:50 -3.48685 114.96215 9923 ft 131 kts 280°
2026-04-11 07:50 -3.48492 114.95323 9920 ft 131 kts 280°
2026-04-11 07:50 -3.48299 114.94436 9915 ft 130 kts 280°
2026-04-11 07:51 -3.48109 114.93560 9917 ft 131 kts 280°
2026-04-11 07:51 -3.47915 114.92665 9919 ft 132 kts 280°
2026-04-11 07:51 -3.47720 114.91762 9919 ft 133 kts 280°
2026-04-11 07:51 -3.47521 114.90852 9919 ft 134 kts 280°
2026-04-11 07:52 -3.47324 114.89941 9924 ft 134 kts 280°
2026-04-11 07:52 -3.47128 114.89033 9924 ft 133 kts 280°
2026-04-11 07:52 -3.46931 114.88131 9919 ft 132 kts 280°
2026-04-11 07:52 -3.46737 114.87233 9916 ft 132 kts 280°
2026-04-11 07:53 -3.46543 114.86336 9920 ft 131 kts 280°
2026-04-11 07:53 -3.46352 114.85455 9914 ft 131 kts 280°
2026-04-11 07:53 -3.46158 114.84563 9914 ft 131 kts 280°
2026-04-11 07:53 -3.45964 114.83668 9914 ft 131 kts 280°
2026-04-11 07:54 -3.45770 114.82773 9916 ft 131 kts 280°
2026-04-11 07:54 -3.45577 114.81880 9914 ft 131 kts 280°
2026-04-11 07:54 -3.45382 114.80984 9915 ft 132 kts 280°
2026-04-11 07:54 -3.45188 114.80092 9911 ft 131 kts 280°
2026-04-11 07:55 -3.44994 114.79196 9915 ft 131 kts 280°
2026-04-11 07:55 -3.44801 114.78303 9916 ft 131 kts 280°
2026-04-11 07:55 -3.44607 114.77412 9913 ft 131 kts 279°
2026-04-11 07:55 -3.44416 114.76532 9911 ft 131 kts 280°
2026-04-11 07:56 -3.44223 114.75640 9914 ft 131 kts 280°
2026-04-11 07:56 -3.44029 114.74746 9914 ft 131 kts 280°
2026-04-11 07:56 -3.43835 114.73853 9914 ft 130 kts 280°
2026-04-11 07:56 -3.43598 114.72978 9910 ft 131 kts 293°
2026-04-11 07:57 -3.43145 114.72179 9906 ft 132 kts 295°
2026-04-11 07:57 -3.42708 114.71369 9912 ft 132 kts 296°
2026-04-11 07:57 -3.42267 114.70564 9908 ft 132 kts 295°
2026-04-11 07:57 -3.41825 114.69755 9914 ft 133 kts 296°
2026-04-11 07:58 -3.41386 114.68953 9913 ft 133 kts 295°
2026-04-11 07:58 -3.40939 114.68137 9913 ft 133 kts 295°
2026-04-11 07:58 -3.40501 114.67335 9917 ft 133 kts 295°
2026-04-11 07:58 -3.40051 114.66513 9916 ft 133 kts 295°
2026-04-11 07:59 -3.39606 114.65701 9916 ft 133 kts 296°
2026-04-11 07:59 -3.39162 114.64890 9915 ft 132 kts 296°
2026-04-11 07:59 -3.38719 114.64080 9916 ft 133 kts 296°
2026-04-11 07:59 -3.38281 114.63280 9920 ft 133 kts 296°
2026-04-11 08:00 -3.37838 114.62470 9919 ft 133 kts 295°
2026-04-11 08:00 -3.37394 114.61660 9917 ft 132 kts 296°
2026-04-11 08:00 -3.36954 114.60856 9915 ft 132 kts 296°
2026-04-11 08:00 -3.36513 114.60050 9920 ft 132 kts 295°
2026-04-11 08:01 -3.36069 114.59238 9918 ft 133 kts 296°
2026-04-11 08:01 -3.35624 114.58428 9918 ft 132 kts 295°
2026-04-11 08:01 -3.35182 114.57619 9919 ft 132 kts 295°
2026-04-11 08:01 -3.34740 114.56813 9922 ft 132 kts 295°
2026-04-11 08:02 -3.34298 114.56005 9921 ft 132 kts 295°
2026-04-11 08:02 -3.33860 114.55204 9917 ft 132 kts 296°
2026-04-11 08:02 -3.33418 114.54397 9919 ft 132 kts 295°
2026-04-11 08:02 -3.32975 114.53589 9921 ft 132 kts 296°
2026-04-11 08:03 -3.32533 114.52779 9920 ft 132 kts 296°
2026-04-11 08:03 -3.32090 114.51973 9922 ft 132 kts 296°
2026-04-11 08:03 -3.31647 114.51163 9924 ft 132 kts 296°
2026-04-11 08:03 -3.31204 114.50354 9924 ft 132 kts 296°
2026-04-11 08:04 -3.30762 114.49548 9922 ft 132 kts 296°
2026-04-11 08:04 -3.30320 114.48738 9927 ft 132 kts 296°
2026-04-11 08:04 -3.29879 114.47934 9922 ft 132 kts 295°
2026-04-11 08:04 -3.29439 114.47131 9924 ft 132 kts 296°
2026-04-11 08:05 -3.28998 114.46325 9919 ft 132 kts 295°
2026-04-11 08:05 -3.28562 114.45531 9921 ft 132 kts 296°
2026-04-11 08:05 -3.28120 114.44723 9919 ft 132 kts 296°
2026-04-11 08:05 -3.27678 114.43916 9922 ft 132 kts 296°
2026-04-11 08:06 -3.27237 114.43110 9923 ft 132 kts 296°
2026-04-11 08:06 -3.26798 114.42308 9921 ft 132 kts 296°
2026-04-11 08:06 -3.26353 114.41498 9923 ft 132 kts 296°
2026-04-11 08:06 -3.25915 114.40695 9925 ft 132 kts 296°
2026-04-11 08:07 -3.25476 114.39896 9925 ft 132 kts 296°
2026-04-11 08:07 -3.25035 114.39091 9924 ft 132 kts 296°
2026-04-11 08:07 -3.24595 114.38287 9926 ft 132 kts 296°
2026-04-11 08:08 -3.23713 114.36676 9924 ft 132 kts 296°
2026-04-11 08:08 -3.23273 114.35872 9923 ft 132 kts 296°
2026-04-11 08:08 -3.22831 114.35067 9923 ft 132 kts 296°
2026-04-11 08:08 -3.22391 114.34263 9920 ft 131 kts 296°
2026-04-11 08:09 -3.21951 114.33460 9920 ft 131 kts 296°
2026-04-11 08:09 -3.21511 114.32657 9921 ft 132 kts 296°
2026-04-11 08:09 -3.21076 114.31864 9921 ft 132 kts 296°
2026-04-11 08:09 -3.20637 114.31063 9923 ft 132 kts 296°
2026-04-11 08:10 -3.20197 114.30259 9925 ft 132 kts 296°
2026-04-11 08:10 -3.19900 114.29717 9928 ft 132 kts 296°
2026-04-11 08:10 -3.19464 114.28921 9923 ft 132 kts 296°
2026-04-11 08:10 -3.19023 114.28117 9926 ft 132 kts 296°
2026-04-11 08:11 -3.18433 114.27040 9923 ft 132 kts 296°
2026-04-11 08:11 -3.18142 114.26508 9925 ft 132 kts 296°
2026-04-11 08:11 -3.17700 114.25701 9922 ft 132 kts 296°
2026-04-11 08:11 -3.17116 114.24636 9923 ft 132 kts 296°
2026-04-11 08:12 -3.16675 114.23832 9925 ft 132 kts 296°
2026-04-11 08:12 -3.16383 114.23299 9925 ft 131 kts 296°
2026-04-11 08:12 -3.15944 114.22497 9927 ft 131 kts 296°
2026-04-11 08:12 -3.15505 114.21697 9923 ft 131 kts 296°
2026-04-11 08:13 -3.15065 114.20894 9924 ft 132 kts 296°
2026-04-11 08:13 -3.14623 114.20087 9924 ft 132 kts 296°
2026-04-11 08:13 -3.14182 114.19283 9926 ft 132 kts 296°
2026-04-11 08:13 -3.13742 114.18479 9925 ft 131 kts 296°
2026-04-11 08:14 -3.13302 114.17678 9925 ft 131 kts 296°
2026-04-11 08:14 -3.12868 114.16885 9927 ft 131 kts 296°
2026-04-11 08:14 -3.12429 114.16083 9923 ft 131 kts 296°
2026-04-11 08:14 -3.11990 114.15283 9924 ft 131 kts 296°
2026-04-11 08:15 -3.11550 114.14481 9926 ft 131 kts 296°
2026-04-11 08:15 -3.11111 114.13679 9924 ft 131 kts 296°
2026-04-11 08:15 -3.10672 114.12878 9925 ft 131 kts 296°
2026-04-11 08:15 -3.10233 114.12077 9927 ft 131 kts 296°
2026-04-11 08:16 -3.09798 114.11285 9922 ft 131 kts 296°
2026-04-11 08:16 -3.09361 114.10488 9923 ft 131 kts 296°
2026-04-11 08:16 -3.08923 114.09689 9925 ft 131 kts 296°
2026-04-11 08:16 -3.08484 114.08888 9926 ft 131 kts 296°
2026-04-11 08:17 -3.08045 114.08086 9924 ft 131 kts 296°
2026-04-11 08:17 -3.07603 114.07281 9925 ft 131 kts 296°
2026-04-11 08:17 -3.07165 114.06482 9923 ft 131 kts 296°
2026-04-11 08:17 -3.06726 114.05681 9925 ft 131 kts 296°
2026-04-11 08:18 -3.06292 114.04891 9924 ft 131 kts 296°
2026-04-11 08:18 -3.05853 114.04090 9925 ft 131 kts 296°
2026-04-11 08:18 -3.05412 114.03285 9924 ft 131 kts 296°
2026-04-11 08:18 -3.04974 114.02486 9923 ft 131 kts 296°
2026-04-11 08:19 -3.04534 114.01685 9923 ft 131 kts 296°
2026-04-11 08:19 -3.04093 114.00881 9923 ft 131 kts 296°
2026-04-11 08:19 -3.03657 114.00083 9924 ft 131 kts 296°
2026-04-11 08:19 -3.03218 113.99283 9925 ft 131 kts 296°
2026-04-11 08:20 -3.02778 113.98480 9925 ft 131 kts 296°
2026-04-11 08:20 -3.02344 113.97691 9920 ft 131 kts 296°
2026-04-11 08:20 -3.01905 113.96890 9926 ft 131 kts 296°
2026-04-11 08:20 -3.01466 113.96090 9927 ft 131 kts 296°
2026-04-11 08:21 -3.01029 113.95291 9923 ft 131 kts 296°
2026-04-11 08:21 -3.00590 113.94493 9925 ft 131 kts 296°
2026-04-11 08:21 -3.00152 113.93693 9923 ft 131 kts 296°
2026-04-11 08:21 -2.99714 113.92893 9925 ft 131 kts 296°
2026-04-11 08:22 -2.99281 113.92104 9925 ft 131 kts 296°
2026-04-11 08:22 -2.98838 113.91298 9926 ft 131 kts 296°
2026-04-11 08:22 -2.98404 113.90506 9928 ft 131 kts 297°
2026-04-11 08:22 -2.97966 113.89706 9930 ft 131 kts 297°
2026-04-11 08:23 -2.97525 113.88904 9928 ft 132 kts 296°
2026-04-11 08:23 -2.97082 113.88097 9930 ft 132 kts 296°
2026-04-11 08:23 -2.96645 113.87299 9929 ft 132 kts 297°
2026-04-11 08:23 -2.96199 113.86487 9930 ft 132 kts 297°
2026-04-11 08:24 -2.95761 113.85689 9931 ft 132 kts 296°
2026-04-11 08:24 -2.95321 113.84886 9930 ft 132 kts 297°
2026-04-11 08:24 -2.94881 113.84083 9930 ft 131 kts 297°
2026-04-11 08:24 -2.94441 113.83284 9930 ft 131 kts 297°
2026-04-11 08:25 -2.94003 113.82483 9928 ft 131 kts 297°
2026-04-11 08:25 -2.93563 113.81682 9929 ft 131 kts 297°
2026-04-11 08:25 -2.93122 113.80878 9930 ft 131 kts 297°
2026-04-11 08:25 -2.92687 113.80085 9929 ft 131 kts 297°
2026-04-11 08:26 -2.92247 113.79285 9929 ft 131 kts 297°
2026-04-11 08:26 -2.91808 113.78483 9928 ft 132 kts 297°
2026-04-11 08:26 -2.91367 113.77678 9928 ft 132 kts 297°
2026-04-11 08:26 -2.90925 113.76874 9930 ft 132 kts 297°
2026-04-11 08:27 -2.90489 113.76081 9927 ft 131 kts 297°
2026-04-11 08:27 -2.90050 113.75278 9928 ft 131 kts 297°
2026-04-11 08:27 -2.89611 113.74479 9927 ft 131 kts 297°
2026-04-11 08:27 -2.89173 113.73681 9927 ft 131 kts 297°
2026-04-11 08:28 -2.88735 113.72883 9927 ft 131 kts 297°
2026-04-11 08:28 -2.88297 113.72085 9926 ft 131 kts 297°
2026-04-11 08:28 -2.87859 113.71286 9925 ft 131 kts 297°
2026-04-11 08:28 -2.87420 113.70486 9926 ft 131 kts 297°
2026-04-11 08:29 -2.86981 113.69686 9925 ft 131 kts 297°
2026-04-11 08:29 -2.86547 113.68896 9930 ft 132 kts 297°
2026-04-11 08:29 -2.86102 113.68086 9931 ft 133 kts 297°
2026-04-11 08:29 -2.85658 113.67276 9928 ft 132 kts 297°
2026-04-11 08:30 -2.85216 113.66471 9927 ft 132 kts 297°
2026-04-11 08:30 -2.84774 113.65665 9928 ft 131 kts 297°
2026-04-11 08:30 -2.84340 113.64875 9930 ft 131 kts 297°
2026-04-11 08:30 -2.83899 113.64072 9928 ft 132 kts 297°
2026-04-11 08:31 -2.83459 113.63269 9929 ft 132 kts 297°
2026-04-11 08:31 -2.83018 113.62465 9926 ft 131 kts 297°
2026-04-11 08:31 -2.82578 113.61665 9929 ft 131 kts 296°
2026-04-11 08:31 -2.82139 113.60865 9925 ft 131 kts 296°
2026-04-11 08:32 -2.81701 113.60067 9925 ft 131 kts 297°
2026-04-11 08:32 -2.81265 113.59272 9928 ft 131 kts 297°
2026-04-11 08:32 -2.80831 113.58480 9927 ft 131 kts 297°
2026-04-11 08:32 -2.80391 113.57681 9926 ft 131 kts 297°
2026-04-11 08:33 -2.79953 113.56882 9926 ft 131 kts 297°
2026-04-11 08:33 -2.79514 113.56082 9925 ft 131 kts 297°
2026-04-11 08:33 -2.79075 113.55284 9928 ft 131 kts 297°
2026-04-11 08:33 -2.78636 113.54484 9928 ft 131 kts 297°
2026-04-11 08:34 -2.78197 113.53685 9930 ft 131 kts 297°
2026-04-11 08:34 -2.77759 113.52885 9930 ft 131 kts 297°
2026-04-11 08:34 -2.77325 113.52096 9934 ft 131 kts 297°
2026-04-11 08:34 -2.76885 113.51295 9930 ft 131 kts 297°
2026-04-11 08:35 -2.76447 113.50497 9933 ft 131 kts 297°
2026-04-11 08:35 -2.76008 113.49696 9932 ft 131 kts 296°
2026-04-11 08:35 -2.75568 113.48896 9929 ft 131 kts 296°
2026-04-11 08:35 -2.75129 113.48096 9932 ft 131 kts 297°
2026-04-11 08:36 -2.74690 113.47297 9932 ft 131 kts 296°
2026-04-11 08:36 -2.74250 113.46496 9931 ft 131 kts 296°
2026-04-11 08:36 -2.73811 113.45696 9933 ft 131 kts 296°
2026-04-11 08:36 -2.73378 113.44909 9933 ft 131 kts 296°
2026-04-11 08:37 -2.72941 113.44112 9933 ft 130 kts 296°
2026-04-11 08:37 -2.72505 113.43317 9934 ft 130 kts 296°
2026-04-11 08:37 -2.72069 113.42524 9933 ft 130 kts 296°
2026-04-11 08:37 -2.71632 113.41729 9933 ft 130 kts 296°
2026-04-11 08:38 -2.71196 113.40933 9934 ft 130 kts 297°
2026-04-11 08:38 -2.70759 113.40138 9935 ft 131 kts 296°
2026-04-11 08:38 -2.70325 113.39349 9932 ft 131 kts 296°
2026-04-11 08:38 -2.69887 113.38552 9935 ft 131 kts 296°
2026-04-11 08:39 -2.69450 113.37754 9932 ft 131 kts 296°
2026-04-11 08:39 -2.69011 113.36957 9932 ft 131 kts 296°
2026-04-11 08:39 -2.68572 113.36157 9936 ft 131 kts 296°
2026-04-11 08:39 -2.68133 113.35357 9936 ft 131 kts 296°
2026-04-11 08:40 -2.67682 113.34537 9834 ft 140 kts 296°
2026-04-11 08:40 -2.67190 113.33644 9637 ft 153 kts 297°
2026-04-11 08:40 -2.66665 113.32688 9428 ft 160 kts 297°
2026-04-11 08:40 -2.66125 113.31706 9208 ft 166 kts 297°
2026-04-11 08:41 -2.65561 113.30682 8985 ft 170 kts 297°
2026-04-11 08:41 -2.64984 113.29631 8755 ft 173 kts 297°
2026-04-11 08:41 -2.64394 113.28559 8515 ft 178 kts 297°
2026-04-11 08:41 -2.63825 113.27526 8292 ft 162 kts 297°
2026-04-11 08:42 -2.63301 113.26572 8081 ft 150 kts 297°
2026-04-11 08:42 -2.62817 113.25689 7889 ft 143 kts 297°
2026-04-11 08:42 -2.62344 113.24827 7700 ft 139 kts 297°
2026-04-11 08:43 -2.61416 113.23136 7344 ft 140 kts 297°
2026-04-11 08:43 -2.60941 113.22270 7160 ft 143 kts 297°
2026-04-11 08:43 -2.60461 113.21397 6971 ft 146 kts 297°
2026-04-11 08:43 -2.59964 113.20493 6775 ft 148 kts 297°
2026-04-11 08:44 -2.59471 113.19598 6580 ft 149 kts 297°
2026-04-11 08:44 -2.58970 113.18684 6380 ft 150 kts 297°
2026-04-11 08:44 -2.58462 113.17762 6178 ft 151 kts 297°
2026-04-11 08:44 -2.57957 113.16840 5972 ft 152 kts 297°
2026-04-11 08:45 -2.57442 113.15905 5763 ft 154 kts 297°
2026-04-11 08:45 -2.56930 113.14974 5563 ft 153 kts 297°
2026-04-11 08:45 -2.56416 113.14038 5360 ft 154 kts 297°
2026-04-11 08:45 -2.55902 113.13103 5157 ft 153 kts 297°
2026-04-11 08:46 -2.55388 113.12168 4950 ft 153 kts 297°
2026-04-11 08:46 -2.54874 113.11231 4749 ft 154 kts 297°
2026-04-11 08:46 -2.54365 113.10303 4545 ft 154 kts 297°
2026-04-11 08:46 -2.53847 113.09364 4331 ft 153 kts 297°
2026-04-11 08:47 -2.53349 113.08460 4083 ft 145 kts 297°
2026-04-11 08:47 -2.52868 113.07584 3836 ft 141 kts 297°
2026-04-11 08:47 -2.52399 113.06729 3588 ft 139 kts 297°
2026-04-11 08:47 -2.51935 113.05886 3345 ft 137 kts 297°
2026-04-11 08:48 -2.51475 113.05051 3107 ft 137 kts 298°
2026-04-11 08:48 -2.51016 113.04213 2866 ft 138 kts 298°
2026-04-11 08:48 -2.50560 113.03382 2631 ft 138 kts 298°
2026-04-11 08:48 -2.50092 113.02531 2388 ft 138 kts 298°
2026-04-11 08:49 -2.49628 113.01689 2142 ft 138 kts 298°
2026-04-11 08:49 -2.49158 113.00832 1914 ft 143 kts 297°
2026-04-11 08:49 -2.48685 112.99969 1673 ft 143 kts 298°
2026-04-11 08:49 -2.48208 112.99107 1479 ft 139 kts 298°
2026-04-11 08:50 -2.47754 112.98278 1350 ft 134 kts 298°
2026-04-11 08:50 -2.47312 112.97473 1220 ft 130 kts 298°
2026-04-11 08:50 -2.46880 112.96685 1134 ft 126 kts 298°
2026-04-11 08:50 -2.46473 112.95944 1123 ft 118 kts 298°
2026-04-11 08:51 -2.46086 112.95242 1124 ft 113 kts 298°
2026-04-11 08:51 -2.45716 112.94564 1124 ft 109 kts 298°
2026-04-11 08:51 -2.45502 112.93875 1125 ft 106 kts 259°
2026-04-11 08:51 -2.46020 112.93370 962 ft 111 kts 190°
2026-04-11 08:52 -2.46973 112.94271 664 ft 92 kts 126°
2026-04-11 08:52 -2.47365 112.94764 547 ft 86 kts 131°
2026-04-11 08:52 -2.47745 112.95191 492 ft 80 kts 134°